FW5912 Weather Reports


Display with metric or nautical units.
time (UTC)temp
F
wind
direction
speed
MPH
gust
MPH
rain 1hr
in
rain 24hr
in
rain mn
in
humidity
%
barometer
mb
20260507144554 66 44 15.0 23.0 0.00 0.00 0.00 88 1016.0
20260507143058 67 344 13.0 20.0 0.00 0.00 0.00 88 1016.1
20260507141605 67 33 14.0 24.0 0.00 0.00 0.00 88 1016.0
20260507140057 67 34 14.0 24.0 0.00 0.00 0.00 88 1016.2
20260507134606 67 32 13.0 21.0 0.00 0.00 0.00 88 1016.1
20260507133111 68 20 10.0 17.0 0.00 0.00 0.00 89 1016.2
20260507131556 68 19 9.0 16.0 0.00 0.00 0.00 89 1015.8
20260507130107 68 19 8.0 14.0 0.00 0.00 0.00 89 1015.9
20260507124615 68 38 9.0 14.0 0.00 0.00 0.00 89 1015.7
20260507123107 68 33 5.0 15.0 0.00 0.00 0.00 89 1015.3
20260507121602 68 42 9.0 16.0 0.00 0.00 0.00 89 1015.0
20260507120057 69 55 8.0 16.0 0.00 0.00 0.00 89 1014.9
20260507114555 69 32 12.0 19.0 0.00 0.00 0.00 89 1014.6
20260507113055 69 24 11.0 19.0 0.00 0.00 0.00 89 1014.6
20260507111555 69 348 12.0 19.0 0.00 0.00 0.00 89 1014.4
20260507110056 70 21 12.0 19.0 0.00 0.00 0.00 89 1014.3
20260507104556 70 324 14.0 20.0 0.00 0.00 0.00 90 1014.1
20260507103051 70 313 14.0 19.0 0.00 0.00 0.00 91 1013.8
20260507101600 70 43 10.0 17.0 0.00 0.00 0.00 91 1013.8
20260507094555 70 336 13.0 21.0 0.00 0.00 0.00 90 1013.9
20260507093057 70 334 13.0 21.0 0.00 0.00 0.00 90 1013.8
20260507091558 71 18 12.0 20.0 0.00 0.00 0.00 90 1013.3
20260507090054 71 300 9.0 15.0 0.00 0.00 0.00 91 1013.2
20260507084557 71 306 7.0 16.0 0.00 0.00 0.00 91 1013.1
20260507083108 71 323 9.0 17.0 0.00 0.00 0.00 92 1013.0
20260507081559 72 319 7.0 14.0 0.00 0.00 0.00 93 1013.0
20260507080053 72 330 10.0 15.0 0.00 0.00 0.00 93 1013.1
20260507074611 72 306 12.0 18.0 0.00 0.00 0.00 93 1013.2
20260507073100 72 344 11.0 15.0 0.00 0.00 0.00 93 1013.1
20260507071554 72 284 11.0 15.0 0.00 0.00 0.00 93 1013.3
20260507070055 73 292 7.0 13.0 0.00 0.00 0.00 93 1013.3
20260507064602 73 304 7.0 12.0 0.00 0.00 0.00 92 1013.4
20260507063056 74 293 7.0 13.0 0.00 0.00 0.00 92 1013.4
20260507061556 77 311 5.0 10.0 0.00 0.00 0.00 92 1013.2
20260507060058 77 0 0.0 0.0 0.00 0.00 0.00 93 1013.1
20260507054558 77 0 0.0 1.0 0.00 0.00 0.00 93 1013.1
20260507053059 77 282 0.0 4.0 0.00 0.00 0.00 93 1013.2
20260507051555 77 0 1.0 3.0 0.00 0.00 0.00 93 1013.1
20260507050058 77 298 2.0 3.0 0.00 0.00 0.00 93 1013.2
20260507044558 77 201 0.0 3.0 0.00 0.00 0.00 93 1013.3
20260507043058 77 201 3.0 5.0 0.00 0.00 0.00 93 1012.9
20260507041555 77 225 1.0 4.0 0.00 0.00 0.00 93 1013.1
20260507040052 77 192 2.0 6.0 0.00 0.00 0.00 93 1013.0
20260507034552 77 187 5.0 8.0 0.00 0.00 0.00 93 1012.4
20260507033054 77 163 4.0 8.0 0.00 0.00 0.00 93 1012.1
20260507031551 77 144 6.0 10.0 0.00 0.00 0.00 93 1012.0
20260507030054 77 186 6.0 8.0 0.00 0.00 0.00 93 1012.0
20260507024603 77 145 4.0 7.0 0.00 0.00 0.00 93 1011.9
20260507023054 77 126 4.0 9.0 0.00 0.00 0.00 93 1011.9
20260507021554 77 119 6.0 13.0 0.00 0.00 0.00 93 1011.8
20260507020109 77 126 8.0 12.0 0.00 0.00 0.00 93 1011.5
20260507014606 77 144 7.0 12.0 0.00 0.00 0.00 93 1011.3
20260507013055 77 159 7.0 11.0 0.00 0.00 0.00 92 1011.0
20260507011553 77 122 7.0 10.0 0.00 0.00 0.00 92 1010.9
20260507010056 77 132 5.0 8.0 0.00 0.00 0.00 92 1010.7
20260507004553 77 120 4.0 9.0 0.00 0.00 0.00 92 1010.6
20260507003053 77 135 6.0 10.0 0.00 0.00 0.00 92 1010.5
20260507001557 78 87 8.0 11.0 0.00 0.00 0.00 91 1010.5
20260507000056 78 141 5.0 10.0 0.00 0.00 0.00 91 1010.3
20260506234601 78 137 6.0 10.0 0.00 0.00 0.00 91 1010.3
20260506233059 78 114 5.0 8.0 0.00 0.00 0.00 91 1010.3
20260506231559 78 104 4.0 8.0 0.00 0.00 0.00 91 1010.4
20260506230059 78 113 6.0 10.0 0.00 0.00 0.00 90 1010.2
20260506224558 78 131 6.0 10.0 0.00 0.00 0.00 90 1010.0
20260506223059 78 119 4.0 9.0 0.00 0.00 0.00 90 1010.2
20260506221557 78 148 5.0 10.0 0.00 0.00 0.00 90 1010.0
20260506220057 78 108 5.0 12.0 0.00 0.00 0.00 90 1010.0
20260506214555 78 126 8.0 13.0 0.00 0.00 0.00 90 1010.3
20260506213131 78 129 9.0 15.0 0.00 0.00 0.00 90 1010.3
20260506211611 78 119 12.0 16.0 0.00 0.00 0.00 90 1010.3
20260506204600 79 131 6.0 13.0 0.00 0.00 0.00 90 1010.5
20260506203058 78 137 9.0 16.0 0.00 0.00 0.00 91 1010.3
20260506201609 78 107 10.0 16.0 0.00 0.00 0.00 91 1010.6
20260506200100 78 118 11.0 14.0 0.00 0.00 0.00 90 1010.9
20260506194610 78 106 10.0 14.0 0.00 0.00 0.00 91 1010.9
20260506193055 78 102 11.0 15.0 0.00 0.00 0.00 91 1011.4
20260506191554 78 122 9.0 15.0 0.00 0.00 0.00 91 1011.4
20260506190057 78 107 10.0 14.0 0.00 0.00 0.00 91 1011.7
20260506184609 78 126 5.0 12.0 0.00 0.00 0.00 91 1011.8
20260506183102 78 113 6.0 11.0 0.00 0.00 0.00 91 1011.8
20260506181553 77 94 7.0 11.0 0.00 0.00 0.00 92 1012.0
20260506180056 77 89 7.0 12.0 0.00 0.00 0.00 92 1012.1
20260506174601 77 117 8.0 11.0 0.00 0.00 0.00 91 1012.3
20260506173109 78 115 6.0 9.0 0.00 0.00 0.00 91 1012.4
20260506171610 78 101 7.0 11.0 0.00 0.00 0.00 91 1012.3
20260506170116 78 98 3.0 9.0 0.00 0.00 0.00 91 1012.3
20260506164609 78 129 4.0 8.0 0.00 0.00 0.00 92 1012.3
20260506161600 77 111 6.0 12.0 0.00 0.00 0.00 92 1012.4
20260506160119 77 113 3.0 9.0 0.00 0.00 0.00 92 1011.9
20260506154607 77 84 6.0 12.0 0.00 0.00 0.00 92 1012.1
20260506153057 77 106 9.0 14.0 0.00 0.00 0.00 92 1011.6
20260506151558 77 110 8.0 12.0 0.00 0.00 0.00 92 1011.3